Lapse_Rate
3.4 3.6 4.5 6.7 4.8 4.3 4.5 3.9 4.2 4.0 4.1 4.1 4.3 4.6 5.0 5.2 5.2 5.0 5.2 5.3 5.8 5.6 5.3 5.9 6.5 5.9 5.5 4.9 4.8 5.2 5.0 5.1
3.3 2.6 4.5 6.1 5.0 4.4 4.2 4.4 4.2 4.2 4.0 4.2 4.7 4.9 5.1 5.2 5.1 5.2 5.0 5.6 5.3 6.0 5.4 5.8 6.0 5.7 5.0 5.1 5.5 5.1 4.8 5.1
3.6 4.2 4.9 5.1 4.9 5.8 5.6 5.3 4.4 4.1 4.4 4.7 4.6 4.4 4.6 4.9 5.2 5.2 5.5 5.4 5.4 5.8 5.7 5.0 5.0 4.5 4.4 4.6 5.1 4.4 4.7 5.1
3.5 3.7 4.2 4.3 5.8 6.2 4.9 3.7 3.6 4.5 4.4 4.3 4.2 4.1 4.3 4.4 4.8 5.3 5.0 4.8 4.8 5.0 4.9 4.9 4.6 4.3 4.1 4.4 4.2 4.4 4.7 5.0
4.6 4.2 4.6 4.8 4.9 3.7 3.0 3.5 4.1 4.2 4.3 4.5 4.2 3.7 3.7 3.7 3.9 4.3 4.6 5.0 4.6 4.8 4.4 4.0 4.0 3.9 3.5 3.5 3.7 3.9 4.0 4.7
2.9 3.5 4.6 4.4 4.1 3.4 3.0 3.0 3.7 4.0 4.3 4.3 3.8 2.9 2.8 2.8 2.8 3.3 3.7 3.9 3.5 3.6 3.4 3.7 3.8 3.7 3.7 3.4 3.5 3.4 3.7 4.4
3.6 3.2 3.8 3.7 3.4 2.9 3.0 3.7 4.2 4.4 4.3 4.0 3.5 2.5 2.0 2.7 2.7 3.1 3.1 3.5 3.2 2.8 2.9 3.0 3.1 3.3 3.5 3.6 3.2 3.1 3.4 4.0
3.0 3.0 3.7 3.7 2.8 2.9 3.1 4.3 4.4 4.3 4.0 3.3 3.5 3.4 2.8 2.6 2.3 2.1 2.3 3.1 2.9 2.7 2.3 2.1 2.2 3.2 2.8 3.4 3.1 3.3 3.7 3.8
2.6 3.1 3.9 3.3 3.0 3.6 4.1 4.1 3.9 3.4 3.4 3.6 3.7 3.8 3.3 2.6 1.7 1.4 2.0 2.5 2.1 2.1 1.9 2.5 2.3 2.8 2.2 2.8 3.3 3.6 3.8 4.1
3.2 4.8 3.2 2.8 2.8 3.4 3.5 3.5 3.2 3.1 3.0 3.2 3.6 3.7 3.7 2.5 1.6 1.2 1.8 2.0 2.0 1.7 1.9 1.3 1.3 1.4 0.8 1.5 2.9 3.9 4.4 4.4
3.1 3.2 2.6 2.5 2.8 2.8 2.9 2.6 2.4 2.4 2.6 2.9 3.1 3.4 3.4 2.8 1.6 1.1 1.7 1.6 1.7 2.5 1.0 1.4 1.2 1.6 2.1 1.5 2.0 2.5 3.6 4.3
2.9 2.5 2.3 2.2 1.7 1.1 0.9 1.1 1.4 2.0 2.0 2.4 2.8 2.9 3.1 2.3 1.2 1.1 1.6 1.0 0.8 1.3 1.3 0.1 0.8 1.8 3.8 2.1 1.4 2.1 2.8 3.1
2.6 2.2 1.6 2.1 1.6 1.0 0.9 1.3 0.9 0.7 1.3 2.2 2.5 2.8 2.4 1.7 0.9 0.8 1.5 0.5 0.5 1.1 0.2 0.6 -0.1 -0.2 1.8 2.1 2.2 2.0 2.3 2.3
2.1 2.2 1.7 2.5 2.9 0.9 1.2 0.5 -0.1 -0.2 0.8 1.4 2.3 2.4 1.9 1.2 1.0 0.4 0.9 -0.0 -0.2 0.1 0.7 -0.3 -0.5 -0.6 2.4 2.4 3.6 3.7 3.1 2.7
2.4 2.2 2.4 2.7 2.1 0.6 -0.2 0.1 -0.0 0.4 -0.2 -0.5 0.7 1.6 1.7 1.5 1.2 0.5 0.6 0.4 -0.3 -0.5 -0.7 -0.2 -0.1 0.9 1.1 3.1 3.9 4.1 2.7 2.7
3.0 2.6 2.4 2.1 1.5 1.7 2.5 1.9 1.3 -0.2 -0.8 -1.2 -0.4 1.3 1.3 1.4 1.0 0.9 0.4 0.1 -0.6 -0.1 0.3 -0.5 0.3 2.1 2.4 2.6 2.3 3.5 4.8 4.6
1.6 2.3 2.6 2.5 2.3 2.5 1.7 0.5 -0.5 -1.7 -1.6 -1.3 -1.0 -0.1 1.1 1.0 1.1 0.9 0.2 0.0 0.0 0.9 1.1 0.8 1.2 1.9 2.9 3.2 3.1 2.7 2.8 3.8
1.6 1.8 2.2 2.0 2.2 1.7 1.2 0.6 -0.7 -1.0 -1.5 -1.2 -1.3 -1.5 -1.0 0.4 0.8 0.8 0.9 0.7 0.9 1.2 1.2 0.6 1.5 2.5 2.7 3.5 3.9 4.6 4.5 3.5
1.3 1.9 2.0 1.7 2.0 1.0 0.2 0.3 0.6 0.4 -1.1 -0.9 -0.9 -1.1 -1.3 -1.2 0.2 1.1 1.5 2.1 1.9 2.2 2.1 1.3 2.0 2.2 3.3 4.0 3.4 3.7 3.7 3.8
1.9 1.7 2.5 1.8 2.2 1.3 0.2 1.4 1.5 1.2 0.6 -0.2 -0.2 0.3 -0.6 -0.3 0.8 1.3 2.3 1.9 1.6 3.1 2.3 1.9 2.1 3.1 3.7 3.4 3.6 3.4 3.5 3.9
Wind_Speed
22 23 19 14 19 20 19 20 18 20 19 19 18 17 16 15 13 11 12 14 16 20 19 18 19 19 18 17 16 14 14 11
21 25 15 7 15 15 18 17 18 19 20 19 18 15 14 13 12 11 13 13 16 18 22 19 20 18 16 16 15 13 12 11
22 20 10 10 12 11 13 15 19 19 17 16 15 13 11 10 10 10 10 11 15 18 21 21 20 19 17 16 15 13 10 8
16 19 13 17 2 6 12 13 15 15 17 15 13 11 9 8 9 9 13 19 20 19 20 19 20 19 17 19 18 15 12 8
11 16 14 12 9 4 8 14 12 12 13 12 12 9 9 10 13 17 20 19 17 18 19 19 19 18 19 18 17 17 15 13
15 16 12 7 9 9 7 10 11 11 13 11 9 9 10 12 14 15 17 15 16 17 18 17 17 17 16 17 16 15 14 13
9 6 4 6 5 8 8 7 10 9 10 10 13 12 9 12 13 14 13 13 15 15 14 13 13 15 16 15 15 15 17 15
6 5 6 8 5 6 7 9 7 9 10 12 15 15 14 12 11 11 14 13 13 14 11 10 9 12 12 13 14 15 17 18
7 6 8 7 7 9 9 9 9 9 12 14 15 17 15 14 11 10 12 14 15 12 11 10 8 10 8 11 12 12 14 15
7 7 7 6 7 8 8 10 11 11 13 15 16 15 16 15 10 9 13 11 12 9 5 4 4 4 3 4 7 11 12 15
7 6 7 7 6 7 9 9 9 11 14 15 16 16 16 16 12 13 12 10 7 4 3 2 3 3 4 3 5 7 8 10
7 6 7 7 6 6 6 5 5 8 11 13 17 17 16 16 13 12 10 8 5 4 3 5 3 2 3 4 3 5 6 7
8 8 7 7 3 4 3 3 2 2 8 12 15 15 14 14 11 9 9 4 3 3 3 4 3 2 3 2 2 3 4 3
8 9 11 9 7 3 3 4 2 3 6 8 12 13 12 12 11 9 10 4 4 3 2 2 2 3 2 2 2 2 2 2
12 11 11 9 7 5 3 5 5 2 2 3 5 10 12 15 14 13 9 6 4 3 3 5 3 2 3 3 1 2 2 1
9 10 12 9 10 7 11 7 6 4 4 4 7 11 13 14 14 12 9 7 4 4 3 3 4 3 1 3 3 2 2 3
10 9 10 10 12 10 8 5 3 3 4 7 6 8 11 13 12 10 10 9 7 6 6 5 3 3 2 1 2 1 1 2
9 11 12 9 11 10 11 12 9 7 5 4 4 3 7 11 12 12 12 10 7 6 6 5 4 3 3 3 3 3 3 3
11 12 12 8 11 11 10 11 12 13 12 8 8 5 3 6 9 6 3 9 10 8 5 4 4 3 4 3 3 3 2 3
13 14 12 12 12 12 9 9 7 8 11 10 8 8 6 12 13 14 12 12 12 8 5 4 5 4 6 4 3 3 3 3
Wind_Direction
90 67 52 75 101 111 119 106 119 117 121 126 130 132 126 116 111 99 89 83 82 82 100 94 94 101 100 95 89 87 85 78
97 93 81 19 79 98 106 120 120 126 126 131 134 124 121 116 104 102 91 94 85 89 101 100 95 94 87 81 77 72 71 69
101 106 113 57 34 92 122 143 132 121 123 130 127 128 124 112 110 102 103 95 98 103 104 99 91 79 71 68 63 52 53 51
126 132 149 134 152 149 147 115 106 130 140 142 137 129 120 106 96 99 105 101 94 94 90 90 85 80 73 70 62 53 42 32
136 140 169 164 178 182 106 121 140 148 146 144 137 121 116 104 108 104 100 101 92 87 82 77 76 75 75 71 67 61 51 43
159 165 186 192 152 156 148 135 154 166 160 155 147 130 115 106 98 101 95 95 90 87 79 80 75 78 78 72 62 60 55 44
179 177 187 173 143 141 145 163 178 178 171 168 157 130 114 113 106 101 96 94 91 85 89 87 78 82 75 75 71 67 61 54
179 172 196 170 147 159 168 181 188 188 181 147 141 140 130 121 115 101 91 100 107 107 103 88 77 89 73 80 80 80 75 65
181 176 195 169 167 176 171 183 181 163 150 147 142 141 137 129 117 111 117 123 115 103 90 83 89 77 74 87 91 85 80 73
178 188 180 167 172 168 174 173 161 151 150 149 145 147 146 133 122 128 140 123 113 108 112 81 84 84 88 66 89 84 80 82
177 176 169 160 155 157 164 155 149 152 148 149 154 154 151 138 136 132 131 121 108 115 63 96 74 78 99 80 68 70 73 86
163 167 157 148 127 106 83 91 119 147 155 159 159 155 151 139 131 130 129 108 82 72 95 47 53 53 84 86 57 57 73 81
166 157 156 147 138 134 128 148 156 152 149 155 156 152 145 135 127 118 106 89 124 148 124 111 59 66 110 29 1 49 63 63
168 173 164 171 169 144 144 154 126 98 123 129 150 144 139 133 124 107 109 118 98 91 124 117 65 21 128 75 7 330 357 13
185 179 174 173 152 114 84 78 71 89 117 111 123 139 138 129 123 119 122 129 136 150 137 114 127 29 72 141 81 258 311 319
190 181 176 174 160 158 166 166 167 192 154 125 127 137 131 129 123 128 128 128 121 112 112 108 111 121 27 47 58 129 205 322
185 178 183 177 179 179 172 164 145 130 116 126 125 128 134 128 130 131 130 131 123 113 116 103 93 133 144 105 80 24 101 154
181 178 191 179 181 182 185 173 160 143 134 140 139 141 139 142 143 140 134 126 125 134 128 108 127 127 163 185 170 186 217 195
184 184 191 178 186 191 199 178 166 169 164 163 162 168 173 163 137 120 136 151 140 144 114 114 161 180 187 206 197 212 175 173
194 191 196 191 196 204 186 182 184 176 175 168 174 172 166 164 163 159 171 172 155 153 149 183 185 199 219 222 217 226 197 185